Total_Precipitation_Accumulation
0.60 0.60 0.55 0.52 0.49 0.44 0.42 0.40 0.37 0.35 0.33 0.31 0.28 0.25 0.24 0.24 0.26 0.31 0.34 0.35 0.37 0.38 0.38 0.39 0.42 0.45 0.49 0.47 0.49 0.54 0.61 0.69 0.79 0.71 0.57 0.54 0.53 0.52 0.53 0.51 0.47 0.43 0.41
0.50 0.46 0.42 0.39 0.36 0.34 0.32 0.30 0.26 0.25 0.24 0.23 0.23 0.22 0.19 0.20 0.24 0.28 0.28 0.29 0.33 0.36 0.36 0.35 0.36 0.39 0.43 0.40 0.42 0.44 0.48 0.55 0.66 0.70 0.60 0.51 0.47 0.46 0.46 0.44 0.34 0.31 0.33
0.45 0.44 0.42 0.37 0.33 0.31 0.30 0.27 0.24 0.23 0.22 0.19 0.18 0.18 0.17 0.17 0.20 0.22 0.23 0.26 0.29 0.32 0.30 0.29 0.31 0.33 0.36 0.33 0.35 0.36 0.39 0.43 0.52 0.57 0.50 0.43 0.37 0.34 0.40 0.40 0.35 0.40 0.27
0.46 0.48 0.49 0.48 0.42 0.37 0.33 0.29 0.25 0.21 0.19 0.17 0.16 0.16 0.16 0.15 0.15 0.16 0.16 0.20 0.25 0.25 0.22 0.24 0.27 0.27 0.27 0.30 0.30 0.33 0.37 0.43 0.47 0.48 0.43 0.36 0.34 0.31 0.42 0.50 0.47 0.39 0.30
0.43 0.44 0.45 0.45 0.43 0.37 0.33 0.31 0.28 0.24 0.21 0.21 0.19 0.17 0.16 0.13 0.11 0.12 0.14 0.15 0.20 0.21 0.20 0.19 0.20 0.21 0.24 0.26 0.28 0.32 0.38 0.46 0.48 0.51 0.47 0.42 0.39 0.45 0.52 0.51 0.48 0.37 0.30
0.45 0.44 0.40 0.36 0.33 0.29 0.26 0.23 0.22 0.21 0.21 0.20 0.19 0.18 0.16 0.14 0.15 0.15 0.14 0.16 0.18 0.21 0.22 0.19 0.17 0.16 0.17 0.19 0.22 0.27 0.36 0.46 0.53 0.60 0.57 0.55 0.50 0.56 0.62 0.60 0.61 0.57 0.49
0.51 0.46 0.42 0.38 0.33 0.25 0.20 0.21 0.21 0.22 0.22 0.19 0.16 0.16 0.17 0.15 0.14 0.15 0.15 0.16 0.19 0.25 0.26 0.25 0.20 0.18 0.23 0.26 0.23 0.20 0.26 0.34 0.49 0.66 0.73 0.67 0.64 0.69 0.78 0.76 0.72 0.71 0.64
0.50 0.44 0.37 0.35 0.31 0.26 0.22 0.23 0.21 0.22 0.23 0.22 0.18 0.17 0.19 0.15 0.15 0.16 0.16 0.20 0.22 0.23 0.23 0.24 0.29 0.30 0.25 0.23 0.21 0.24 0.33 0.44 0.52 0.57 0.67 0.64 0.59 0.63 0.75 0.78 0.72 0.66 0.61
0.45 0.37 0.31 0.28 0.27 0.24 0.22 0.21 0.20 0.22 0.23 0.22 0.19 0.19 0.23 0.22 0.19 0.19 0.21 0.25 0.23 0.20 0.17 0.18 0.22 0.27 0.22 0.21 0.25 0.34 0.43 0.51 0.44 0.53 0.60 0.66 0.71 0.68 0.64 0.66 0.79 0.83 0.81
0.35 0.26 0.24 0.24 0.23 0.20 0.18 0.18 0.18 0.20 0.23 0.20 0.20 0.20 0.22 0.22 0.16 0.16 0.20 0.24 0.25 0.21 0.21 0.23 0.21 0.19 0.21 0.22 0.29 0.40 0.51 0.53 0.60 0.77 0.93 1.00 0.94 0.85 0.70 0.72 0.88 0.94 0.95
0.24 0.21 0.22 0.24 0.24 0.21 0.20 0.21 0.21 0.21 0.26 0.26 0.23 0.22 0.21 0.17 0.13 0.11 0.13 0.18 0.21 0.21 0.26 0.32 0.32 0.23 0.23 0.20 0.26 0.38 0.50 0.57 0.80 1.12 1.18 1.07 0.93 0.83 0.73 0.69 0.74 0.82 0.91
0.30 0.28 0.26 0.24 0.15 0.13 0.23 0.25 0.22 0.26 0.29 0.27 0.26 0.24 0.21 0.18 0.11 0.07 0.08 0.11 0.15 0.21 0.34 0.34 0.32 0.29 0.25 0.25 0.31 0.47 0.54 0.72 1.00 1.20 1.12 0.93 0.76 0.65 0.58 0.52 0.55 0.61 0.70
0.41 0.38 0.30 0.24 0.20 0.17 0.21 0.23 0.24 0.26 0.24 0.19 0.19 0.18 0.16 0.18 0.13 0.05 0.05 0.07 0.12 0.17 0.29 0.33 0.33 0.31 0.34 0.48 0.55 0.65 0.73 0.91 1.08 1.06 0.92 0.80 0.67 0.56 0.50 0.49 0.47 0.51 0.52
0.47 0.40 0.33 0.29 0.24 0.20 0.18 0.15 0.18 0.18 0.18 0.16 0.15 0.15 0.15 0.16 0.12 0.08 0.08 0.12 0.16 0.19 0.28 0.40 0.49 0.53 0.57 0.68 0.75 0.84 0.91 0.98 0.93 0.82 0.72 0.66 0.57 0.51 0.49 0.45 0.45 0.47 0.50
0.44 0.38 0.33 0.25 0.22 0.23 0.17 0.08 0.06 0.07 0.05 0.08 0.10 0.10 0.14 0.15 0.09 0.10 0.11 0.14 0.20 0.25 0.28 0.44 0.62 0.68 0.72 0.78 0.78 0.82 0.84 0.81 0.79 0.73 0.67 0.59 0.52 0.49 0.47 0.44 0.46 0.43 0.46
0.33 0.31 0.25 0.20 0.19 0.17 0.17 0.13 0.04 0.01 0.01 0.02 0.03 0.05 0.07 0.10 0.08 0.07 0.10 0.14 0.20 0.27 0.33 0.52 0.68 0.71 0.73 0.74 0.71 0.70 0.71 0.67 0.63 0.62 0.61 0.57 0.52 0.49 0.47 0.44 0.43 0.43 0.46
0.23 0.21 0.16 0.14 0.15 0.16 0.18 0.24 0.25 0.12 0.03 0.02 0.03 0.04 0.06 0.07 0.08 0.07 0.09 0.13 0.17 0.24 0.33 0.53 0.69 0.79 0.79 0.72 0.65 0.63 0.67 0.68 0.65 0.62 0.57 0.54 0.48 0.43 0.42 0.40 0.38 0.37 0.39
0.12 0.11 0.10 0.12 0.10 0.10 0.10 0.14 0.23 0.28 0.24 0.17 0.08 0.05 0.06 0.08 0.10 0.10 0.11 0.15 0.21 0.26 0.38 0.52 0.64 0.69 0.70 0.70 0.65 0.62 0.65 0.67 0.64 0.57 0.52 0.49 0.43 0.39 0.36 0.38 0.35 0.29 0.29
0.08 0.09 0.08 0.07 0.06 0.06 0.06 0.08 0.12 0.17 0.22 0.23 0.19 0.12 0.09 0.11 0.15 0.16 0.16 0.19 0.25 0.30 0.37 0.45 0.53 0.54 0.52 0.52 0.51 0.51 0.55 0.59 0.54 0.46 0.42 0.42 0.39 0.34 0.34 0.34 0.29 0.20 0.21
0.08 0.04 0.03 0.04 0.04 0.04 0.04 0.06 0.08 0.11 0.17 0.21 0.19 0.15 0.14 0.21 0.28 0.27 0.20 0.18 0.18 0.22 0.29 0.37 0.43 0.41 0.38 0.37 0.34 0.34 0.37 0.39 0.37 0.34 0.33 0.32 0.32 0.31 0.29 0.26 0.24 0.21 0.20
0.04 0.03 0.01 0.02 0.03 0.04 0.03 0.03 0.04 0.06 0.11 0.15 0.13 0.10 0.15 0.23 0.30 0.31 0.29 0.26 0.24 0.23 0.24 0.26 0.30 0.33 0.32 0.29 0.26 0.23 0.24 0.25 0.26 0.27 0.27 0.28 0.28 0.27 0.23 0.19 0.16 0.13 0.13
0.02 0.02 0.02 0.02 0.03 0.02 0.02 0.01 0.01 0.03 0.07 0.11 0.11 0.10 0.14 0.18 0.23 0.25 0.30 0.34 0.33 0.30 0.27 0.25 0.25 0.28 0.31 0.29 0.24 0.20 0.19 0.21 0.23 0.26 0.28 0.28 0.25 0.21 0.17 0.14 0.11 0.09 0.09
0.01 0.01 0.01 0.01 0.01 0.00 0.00 0.01 0.01 0.02 0.04 0.07 0.08 0.10 0.12 0.17 0.19 0.22 0.26 0.32 0.35 0.33 0.29 0.26 0.26 0.29 0.30 0.30 0.27 0.21 0.17 0.17 0.18 0.21 0.26 0.26 0.23 0.18 0.14 0.12 0.09 0.09 0.08
0.00 0.00 0.00 0.00 0.00 0.00 0.00 0.01 0.01 0.01 0.02 0.03 0.05 0.08 0.11 0.15 0.16 0.18 0.23 0.27 0.31 0.33 0.32 0.30 0.30 0.30 0.29 0.27 0.24 0.16 0.14 0.15 0.15 0.17 0.21 0.24 0.20 0.16 0.12 0.11 0.10 0.10 0.10
0.00 0.00 0.00 0.00 0.00 0.00 0.00 0.00 0.01 0.01 0.01 0.01 0.03 0.04 0.06 0.08 0.11 0.12 0.16 0.21 0.24 0.27 0.27 0.27 0.27 0.25 0.22 0.20 0.17 0.13 0.13 0.15 0.16 0.16 0.18 0.19 0.17 0.15 0.13 0.13 0.11 0.10 0.10
0.00 0.00 0.00 0.00 0.00 0.00 0.01 0.01 0.01 0.02 0.02 0.02 0.02 0.03 0.03 0.04 0.06 0.08 0.10 0.11 0.14 0.19 0.21 0.23 0.23 0.20 0.16 0.13 0.13 0.14 0.14 0.12 0.11 0.12 0.16 0.19 0.18 0.16 0.15 0.14 0.11 0.10 0.09